Location: El Carrer d�Abaix
(41.5797°N, 2.1791°E)
Time: 12:51:35
(UTC+00:00)

Cosmos 1244 Rocket - Pass Details

Date: 06 June 2020
Orbit: 954 x 997 km, 82.9° (Epoch: 13 July)

Event Time Altitude Azimuth Distance (km) Brightness Sun altitude
Exits shadow 23:12:32 58° 157° (SSE) 1,112 4.4 -25.1°
Maximum altitude 23:13:43 74° 95° (E) 1,001 4.4 -25.1°
Drops below altitude 10° 23:19:52 10° 11° (N) 2,698 7.7 -25.3°
Sets 23:22:22 0° 10° (N) 3,644 8.7 -25.3°
